User: anonymous   Login
Location: Tyler Bend Campground
(35.9875°N, 92.7606°W)
Time: 14:23:10
(UTC-05:00)
Language:

CZ-2C R/B - Orbit

View from above orbital plane
View from above orbital plane
View from above satellite
View from above satellite

Ground track
Ground track

The orbit data is extracted from the following two-line orbital elements,

1 36089U 09061B   16181.93471334 +.00000028 +00000-0 +18201-4 0  9999
2 36089 098.0509 193.4624 0083195 051.2091 008.3224 14.49583412350583
Epoch (UTC): 29 June 2016 22:25:59
Eccentricity: 0.0083195
inclination: 98.0509°
perigee height: 668 km
apogee height: 786 km
right ascension of ascending node: 193.4624°
argument of perigee: 51.2091°
revolutions per day: 14.49583412
mean anomaly at epoch: 8.3224°
orbit number at epoch: 35058

The dashed part of the orbit path shows where the satellite is in the earth's shadow,  

DLR